{"data":{"norad_id":63652,"epoch":"2026-05-24T21:27:52.051680Z","epoch_age_seconds":84324,"freshness":"FRESH","line1":"1 63652U 25083U   26144.89435245  .00019218  00000+0  70573-3 0  9992","line2":"2 63652  42.9994 294.6428 0001382 266.1919  93.8774 15.27596547 61729","mean_motion":15.27596547,"eccentricity":0.0001382,"inclination_deg":42.9994,"raan_deg":294.6428,"arg_perigee_deg":266.1919,"mean_anomaly_deg":93.8774,"bstar":0.00070573,"rev_number":6172,"period_min":94.265727611651,"perigee_km":482.05133974511,"apogee_km":483.9477578872,"semimajor_km":6861.1365488162,"source":"CELESTRAK","updated_at":"2026-05-25T13:38:20.055845Z"}}